CMA CGM Herodote — MFEP — position and weather

sailwx.info

Track history (hours):
 
Tides and Currents Weather Stations Pressure Air Temp Water Temp Dewpoint Dewpoint Depression Visibility Wind Speed Wind Dir Waves Ship Positions

CMA CGM Herodote

Last reported at 2014-Sep-05 12:30 UTC. Time now 2014-Sep-20 07:55 UTC.
Position N 17°33' W 063°06'.
Warning: this ship's position is 14 days out of date.

Length 170 m; draft 9.2 m.

Type: Ship (hazmat cat A). MMSI: 235051085.

Date/timePositionNaut miles runAvg speedWind from/ knotsBaromVisibWave heightAir tempDewpointWater temp
2014-Sep-05 12:30N 17°33' W 063°06'2219.4
2014-Sep-05 11:21N 17°55' W 063°06'6 7.2
2014-Sep-05 10:30N 18°01' W 063°03'1 0.0
2014-Sep-04 21:21N 18°00' W 063°03'3 3.1
2014-Sep-04 20:25N 17°58' W 063°05'  
2014-Aug-31 06:28N 36°58' W 029°47'2018.8
2014-Aug-31 05:25N 37°09' W 029°26'1618.9
2014-Aug-31 04:33N 37°18' W 029°10'1918.8
2014-Aug-31 03:33N 37°29' W 028°50'1918.9
2014-Aug-31 02:33N 37°39' W 028°30'1919.3
2014-Aug-31 01:33N 37°50' W 028°10'1918.8
2014-Aug-31 00:33N 37°60' W 027°49'1918.8
2014-Aug-30 23:33N 38°10' W 027°29'1919.1
2014-Aug-30 22:33N 38°20' W 027°09'1918.6
2014-Aug-30 21:33N 38°30' W 026°49'1918.7
2014-Aug-30 20:33N 38°40' W 026°29'1818.5
2014-Aug-30 19:34N 38°50' W 026°09'1817.9
2014-Aug-30 18:33N 38°60' W 025°49'1918.4
2014-Aug-30 17:33N 39°09' W 025°29'1818.5
2014-Aug-30 16:33N 39°19' W 025°09'1919.1
2014-Aug-30 15:33N 39°29' W 024°48'3919.4
2014-Aug-30 13:33N 39°50' W 024°05'  
2014-Aug-27 21:14N 49°41' W 000°40'1217.3
2014-Aug-27 20:33N 49°36' W 000°24'1514.8
2014-Aug-27 19:33N 49°31' W 000°02'8 8.2
2014-Aug-27 18:33N 49°29' E 000°10'0 0.0
2014-Aug-27 17:33N 49°29' E 000°10'0 0.0
2014-Aug-27 16:30N 49°29' E 000°10'0 0.0
2014-Aug-27 15:30N 49°29' E 000°10'0 0.0
2014-Aug-27 14:33N 49°29' E 000°10'0 0.0
2014-Aug-27 13:33N 49°29' E 000°10'0 0.0
2014-Aug-27 12:33N 49°29' E 000°10'0 0.0
2014-Aug-27 11:33N 49°29' E 000°10'0 0.0
2014-Aug-27 10:33N 49°29' E 000°10'0 0.0
2014-Aug-27 09:33N 49°29' E 000°10'0 0.0
2014-Aug-27 08:33N 49°29' E 000°10'0 0.0
2014-Aug-27 07:33N 49°29' E 000°10'0 0.0
2014-Aug-27 06:33N 49°29' E 000°10'0 0.0
2014-Aug-27 05:33N 49°29' E 000°10'0 0.0
2014-Aug-27 04:33N 49°29' E 000°10'0 0.0
2014-Aug-27 03:33N 49°29' E 000°10'0 0.0
2014-Aug-27 02:33N 49°29' E 000°10'0 0.0
2014-Aug-27 01:30N 49°29' E 000°10'0 0.0
2014-Aug-27 00:33N 49°29' E 000°10'0 0.0
2014-Aug-26 23:33N 49°29' E 000°10'0 0.0
2014-Aug-26 22:33N 49°29' E 000°10'0 0.0
2014-Aug-26 21:33N 49°29' E 000°10'0 0.0
2014-Aug-26 20:30N 49°29' E 000°10'0 0.0
2014-Aug-26 19:33N 49°29' E 000°10'4 3.8
2014-Aug-26 18:34N 49°29' E 000°04'9 8.7
2014-Aug-26 17:33N 49°33' W 000°08'2 1.5
2014-Aug-26 16:31N 49°34' W 000°08'0 0.0
2014-Aug-26 15:31N 49°34' W 000°08'6 5.8
2014-Aug-26 14:33N 49°39' W 000°13'  
Track history (hours):
 
Tides and Currents Weather Stations Pressure Air Temp Water Temp Dewpoint Dewpoint Depression Visibility Wind Speed Wind Dir Waves Ship Positions

CMA CGM Herodote

Last reported at 2014-Sep-05 12:30 UTC. Time now 2014-Sep-20 07:55 UTC.
Position N 17°33' W 063°06'.
Warning: this ship's position is 14 days out of date.

Length 170 m; draft 9.2 m.

Type: Ship (hazmat cat A). MMSI: 235051085.

Date/timePositionNaut miles runAvg speedWind from/ knotsBaromVisibWave heightAir tempDewpointWater temp
2014-Sep-05 12:30N 17°33' W 063°06'2219.4
2014-Sep-05 11:21N 17°55' W 063°06'6 7.2
2014-Sep-05 10:30N 18°01' W 063°03'1 0.0
2014-Sep-04 21:21N 18°00' W 063°03'3 3.1
2014-Sep-04 20:25N 17°58' W 063°05'  
2014-Aug-31 06:28N 36°58' W 029°47'2018.8
2014-Aug-31 05:25N 37°09' W 029°26'1618.9
2014-Aug-31 04:33N 37°18' W 029°10'1918.8
2014-Aug-31 03:33N 37°29' W 028°50'1918.9
2014-Aug-31 02:33N 37°39' W 028°30'1919.3
2014-Aug-31 01:33N 37°50' W 028°10'1918.8
2014-Aug-31 00:33N 37°60' W 027°49'1918.8
2014-Aug-30 23:33N 38°10' W 027°29'1919.1
2014-Aug-30 22:33N 38°20' W 027°09'1918.6
2014-Aug-30 21:33N 38°30' W 026°49'1918.7
2014-Aug-30 20:33N 38°40' W 026°29'1818.5
2014-Aug-30 19:34N 38°50' W 026°09'1817.9
2014-Aug-30 18:33N 38°60' W 025°49'1918.4
2014-Aug-30 17:33N 39°09' W 025°29'1818.5
2014-Aug-30 16:33N 39°19' W 025°09'1919.1
2014-Aug-30 15:33N 39°29' W 024°48'3919.4
2014-Aug-30 13:33N 39°50' W 024°05'  
2014-Aug-27 21:14N 49°41' W 000°40'1217.3
2014-Aug-27 20:33N 49°36' W 000°24'1514.8
2014-Aug-27 19:33N 49°31' W 000°02'8 8.2
2014-Aug-27 18:33N 49°29' E 000°10'0 0.0
2014-Aug-27 17:33N 49°29' E 000°10'0 0.0
2014-Aug-27 16:30N 49°29' E 000°10'0 0.0
2014-Aug-27 15:30N 49°29' E 000°10'0 0.0
2014-Aug-27 14:33N 49°29' E 000°10'0 0.0
2014-Aug-27 13:33N 49°29' E 000°10'0 0.0
2014-Aug-27 12:33N 49°29' E 000°10'0 0.0
2014-Aug-27 11:33N 49°29' E 000°10'0 0.0
2014-Aug-27 10:33N 49°29' E 000°10'0 0.0
2014-Aug-27 09:33N 49°29' E 000°10'0 0.0
2014-Aug-27 08:33N 49°29' E 000°10'0 0.0
2014-Aug-27 07:33N 49°29' E 000°10'0 0.0
2014-Aug-27 06:33N 49°29' E 000°10'0 0.0
2014-Aug-27 05:33N 49°29' E 000°10'0 0.0
2014-Aug-27 04:33N 49°29' E 000°10'0 0.0
2014-Aug-27 03:33N 49°29' E 000°10'0 0.0
2014-Aug-27 02:33N 49°29' E 000°10'0 0.0
2014-Aug-27 01:30N 49°29' E 000°10'0 0.0
2014-Aug-27 00:33N 49°29' E 000°10'0 0.0
2014-Aug-26 23:33N 49°29' E 000°10'0 0.0
2014-Aug-26 22:33N 49°29' E 000°10'0 0.0
2014-Aug-26 21:33N 49°29' E 000°10'0 0.0
2014-Aug-26 20:30N 49°29' E 000°10'0 0.0
2014-Aug-26 19:33N 49°29' E 000°10'4 3.8
2014-Aug-26 18:34N 49°29' E 000°04'9 8.7
2014-Aug-26 17:33N 49°33' W 000°08'2 1.5
2014-Aug-26 16:31N 49°34' W 000°08'0 0.0
2014-Aug-26 15:31N 49°34' W 000°08'6 5.8
2014-Aug-26 14:33N 49°39' W 000°13'  

Dump ship's entire track history